Syracuse, NY

12:34 AM EST on November 21, 2017 (GMT -0500)
Syracuse Hancock International

Weather History for KSYR - December, 2011

Change the Weather History Date:

Tuesday, December 13, 2011

  Actual Average Record
Temperature  
Mean Temperature 33 °F 30 °F  
Max Temperature 44 °F 37 °F 61 °F (1923)
Min Temperature 22 °F 23 °F -5 °F (1982)
Degree Days  
Heating Degree Days 32 35  
Month to date heating degree days 355 423  
Since 1 July heating degree days 1338 1772  
Cooling Degree Days 0 0  
Month to date cooling degree days 0 0  
Year to date cooling degree days 911 569  
Moisture  
Dew Point 24 °F    
Average Humidity 69    
Maximum Humidity 88    
Minimum Humidity 49    
Precipitation  
Precipitation 0.00 in 0.10 in 1.48 in (1996)
Month to date precipitation 0.50 1.46  
Year to date precipitation 46.06 36.71  
Snow  
Snow 0.00 in 1.10 in 5.90 in (1951)
Month to date snowfall 0.1 12.8  
Since 1 July snowfall 0.7 22.7  
Snow Depth 0.00 in    
Sea Level Pressure  
Sea Level Pressure 30.41 in    
Wind  
Wind Speed 1 mph (WNW)    
Max Wind Speed 12 mph    
Max Gust Speed 13 mph    
Visibility 9 miles    
Events Fog    
T = Trace of Precipitation, MM = Missing Value Source: NWS Daily Summary

Daily Weather History Graph

Daily Weather History Graph

Search for Another Location

Airport or City:

Trip Planner

Search our weather history database for the weather conditions in past years. The results will help you decide how hot, cold, wet, or windy it might be!

Date:

Astronomy

Dec. 13, 2011 Rise Set
Actual Time 7:27 AM EST 4:29 PM EST
Civil Twilight 6:55 AM EST 5:01 PM EST
Nautical Twilight 6:19 AM EST 5:37 PM EST
Astronomical Twilight 5:44 AM EST 6:12 PM EST
Moon 7:45 PM EST (12/13) 9:33 AM EST (12/13)
Length of Visible Light 10h 06m
Length of Day
9h 02m
Waning Gibbous, 90% of the Moon is Illuminated
Dec 13
Waning Gibbous
Dec 17
Last Quarter
Dec 24
New
Jan 1
First Quarter
Jan 9
Full

Hourly Weather History & Observations

Time (EST) Temp. Windchill Dew Point Humidity Pressure Visibility Wind Dir Wind Speed Gust Speed Precip Events Conditions
12:54 AM 24.1 °F - 17.1 °F 75% 30.42 in 10.0 mi Calm Calm - N/A   Scattered Clouds
1:54 AM 24.1 °F - 18.0 °F 77% 30.42 in 10.0 mi Calm Calm - N/A   Scattered Clouds
2:54 AM 24.1 °F - 18.0 °F 77% 30.43 in 10.0 mi Calm Calm - N/A   Scattered Clouds
3:54 AM 25.0 °F - 18.0 °F 75% 30.42 in 10.0 mi Calm Calm - N/A   Partly Cloudy
4:54 AM 24.1 °F - 18.0 °F 77% 30.42 in 10.0 mi Calm Calm - N/A   Scattered Clouds
5:54 AM 21.9 °F 17.2 °F 18.0 °F 85% 30.42 in 10.0 mi ESE 3.5 mph - N/A   Scattered Clouds
6:54 AM 23.0 °F - 19.0 °F 85% 30.43 in 10.0 mi Calm Calm - N/A   Partly Cloudy
7:54 AM 24.1 °F - 19.0 °F 81% 30.44 in 10.0 mi Calm Calm - N/A   Scattered Clouds
8:54 AM 28.0 °F - 23.0 °F 81% 30.44 in 9.0 mi Calm Calm - N/A   Scattered Clouds
9:54 AM 35.1 °F - 26.1 °F 70% 30.44 in 10.0 mi Calm Calm - N/A   Scattered Clouds
10:54 AM 41.0 °F 37.1 °F 26.1 °F 55% 30.43 in 10.0 mi WNW 5.8 mph - N/A   Scattered Clouds
11:54 AM 43.0 °F 40.3 °F 26.1 °F 51% 30.42 in 10.0 mi WNW 4.6 mph - N/A   Scattered Clouds
12:54 PM 44.1 °F - 26.1 °F 49% 30.40 in 10.0 mi Calm Calm - N/A   Mostly Cloudy
1:54 PM 43.0 °F 39.5 °F 27.0 °F 53% 30.39 in 10.0 mi NNW 5.8 mph - N/A   Overcast
2:54 PM 44.1 °F 41.5 °F 28.9 °F 55% 30.38 in 10.0 mi West 4.6 mph - N/A   Overcast
3:54 PM 42.1 °F 40.2 °F 30.0 °F 62% 30.39 in 10.0 mi WNW 3.5 mph - N/A   Overcast
4:54 PM 39.0 °F 36.8 °F 28.9 °F 67% 30.41 in 10.0 mi West 3.5 mph - N/A   Mostly Cloudy
5:54 PM 36.0 °F - 27.0 °F 70% 30.40 in 10.0 mi Calm Calm - N/A   Overcast
6:54 PM 33.1 °F - 26.1 °F 75% 30.41 in 9.0 mi Calm Calm - N/A   Mostly Cloudy
7:54 PM 32.0 °F - 27.0 °F 82% 30.40 in 8.0 mi Calm Calm - N/A Fog Patches of Fog
8:54 PM 33.1 °F - 27.0 °F 78% 30.41 in 6.0 mi Calm Calm - N/A Fog Patches of Fog
9:54 PM 34.0 °F - 28.0 °F 79% 30.39 in 7.0 mi Calm Calm - N/A Fog Patches of Fog
10:54 PM 33.1 °F - 27.0 °F 78% 30.38 in 6.0 mi Calm Calm - N/A   Haze
11:54 PM 32.0 °F - 27.0 °F 82% 30.38 in 6.0 mi Calm Calm - N/A   Haze